Regional Weather Roundup
Issued by NWS Portland, ME

Home | Current Version | Previous Version | Text Only | Print | Product List | Glossary On
Versions: 1 2 3 4 5 6 7 8 9 10 11 12 13 14 15 16 17 18 19 20 21 22 23 24 25 26 27 28 29 30 31 32 33 34 35 36 37 38 39 40 41 42 43 44 45 46 47 48 49 50
000
ASUS41 KGYX 040710
RWRGYX
WEATHER ROUNDUP FOR MAINE AND NEW HAMPSHIRE
NATIONAL WEATHER SERVICE GRAY ME
200 AM EST WED MAR 04 2015

MEZ002-005-006-010-012-015-018-020-021-024-026-027-029-040800-
MAINE

CITY           SKY/WX    TMP DP  RH WIND       PRES   REMARKS
PORTLAND       CLOUDY    33  30  88 S12G21    29.67F
SANFORD        CLOUDY    27  19  74 S7        29.67F
BAR HARBOR     CLOUDY    30  30 100 S16       29.72F WCI  19
WISCASSET      MIX PCPN  33  32  96 S8        29.70F FOG
ROCKLAND       CLOUDY    34  32  93 S15G22    29.70F
FRYEBURG       CLOUDY    24  21  88 VRB6      29.64F
LEWISTONAUBURN CLOUDY    25  23  93 S6        29.66F
AUGUSTA        CLOUDY    29  28  96 S8        29.65F FOG
WATERVILLE       N/A     27  25  93 SW8       29.64F
BANGOR         LGT SNOW  30  27  88 S13G20    29.68F FOG     WCI  20
GREENVILLE       N/A     21  19  92 S8G20     29.52F
MILLINOCKET    LGT SNOW  25  23  92 VRB5      29.64F FOG
HOULTON        LGT SNOW  22  19  89 S12G18    29.61F FOG     WCI  10
PRESQUE ISLE   CLOUDY    19  14  79 S12       29.59F WCI   7
FRENCHVILLE    LGT SNOW  14  11  87 SE14      29.54F VSB 3/4 WCI  -1
CARIBOU        LGT SNOW  18  14  84 S13G22    29.58F VSB 1   WCI   5
$$

NHZ002-005-008-009-011-012-014-040800-
NEW HAMPSHIRE

CITY           SKY/WX    TMP DP  RH WIND       PRES   REMARKS
PORTSMOUTH     CLOUDY    30  27  91 S2        29.67F
ROCHESTER      CLOUDY    24  22  91 CALM      29.67F FOG
NASHUA         CLOUDY    29  28  96 CALM      29.69F
MANCHESTER     CLOUDY    28  28 100 CALM      29.66F FOG
CONCORD        CLOUDY    26  24  92 CALM      29.66F FOG
LACONIA        CLOUDY    25  21  86 W5        29.63F
PLYMOUTH       CLOUDY    23  23 100 CALM      29.66F FOG
BERLIN         CLOUDY    23  20  88 VRB3      29.54F
WHITEFIELD     CLOUDY    26  23  88 CALM      29.56F
JAFFREY        CLOUDY    33  31  92 SW13G25   29.64F
KEENE          CLOUDY    28  28 100 CALM      29.67F
LEBANON        FLURRIES  27  23  85 S9        29.62F
MT WASHINGTON  BLWGSNOW  14  14 100 W77G85      N/A  VSB 0   WCI -15
$$

VTZ005-007-008-040800-
VERMONT

CITY           SKY/WX    TMP DP  RH WIND       PRES   REMARKS
ST JOHNSBURY     N/A     26  22  84 MISG      29.57F
MONTPELIER     CLOUDY    22  20  92 SE8       29.59F
BURLINGTON     CLOUDY    30  24  78 S18G35    29.57S WCI  18
$$

MAZ007-012-024-CTZ003-RIZ002-NYZ038-NYZ072-040800-
SOUTHERN NEW ENGLAND AND NY

CITY           SKY/WX    TMP DP  RH WIND       PRES   REMARKS
BOSTON         CLOUDY    36  34  92 W8        29.70F
WORCESTER      CLOUDY    34  32  92 SW21G30   29.65F
NANTUCKET      LGT RAIN  39  37  92 S16       29.79F FOG
PROVIDENCE     LGT RAIN  40  38  93 SW15G25   29.71F
HARTFORD       CLOUDY    37  32  82 SW8       29.73F
ALBANY         CLOUDY    32  26  78 S13G25    29.68F
NEW YORK CITY  CLOUDY    36  32  85 SW7       29.79F
$$

ANZ081-ANZ082-ANZ150-NHZ014-MEZ023>029-040800-
COASTAL MARINE OBSERVATIONS

STATION/POSITION TIME  TEMP    WIND        PRES    WAVE
                       AIR SEA DIR/SP/G            HT/PER
                 (UTC) (F)     (DEG/KT/KT) (MB)    (FT/S)
MOUNT DESERT ROC 0700   34                 1006.0F
MATINICUS ROCK   0600   34     190/ 33/ 40 1007.2F
WELLS            0600   31     220/ 12/ 15 1006.4F
ISLE OF SHOALS   0600   32     210/ 21/ 23 1005.9F
JEFFREYS LEDGE   0621      40                N/A     9/ 6
CASHES LEDGE BUO 0650   38 39              1005.2F  10/ 7
$$

.............KEY..............
   WCI - WIND CHILL
   TC  - TEMPERATURE IN CELSIUS
   VSB - VISIBILITY IN MILES
   HX  - HEAT INDEX
   FAIR- INDICATES FEW OR NO CLOUDS BELOW 12,000 FT, WITH NO
         SIGNIFICANT WEATHER AND/OR OBSTRUCTIONS TO VISIBILITY.




USA.gov is the U.S. government's official web portal to all federal, state and local government web resources and services.